This demonstration page uses our WeatherBlox Daily Observations layout. Learn more.

Left ArrowRight Arrow

Hourly Observations for June 29, 2021

Temp ( °F °C ) Dew Point ( °F °C ) Humidity (%) Winds ( mph kmh ) Pressure ( in mb ) Visibility ( mi km ) Precip ( " mm )
12:51 am 00:51 Clear 72 22.2 56 13.3 57 57 ESE 8 13 29.86 1011 10 16 N/A
1:51 am 01:51 Clear 71 21.7 57 13.9 61 61 ESE 8 13 29.85 1011 10 16 N/A
2:51 am 02:51 Clear 70 21.1 57 13.9 64 64 SE 8 13 29.85 1011 10 16 N/A
3:51 am 03:51 Clear 68 20 56 13.3 65 65 SE 7 11 29.86 1011 10 16 N/A
4:51 am 04:51 Clear 68 20 57 13.9 68 68 ESE 6 9 29.89 1012 10 16 N/A
5:51 am 05:51 Sunny 67 19.4 57 13.9 71 71 E 7 11 29.91 1013 10 16 N/A
6:51 am 06:51 Cloudy 72 22.2 58 14.4 61 61 ESE 6 9 29.91 1013 10 16 N/A
7:51 am 07:51 Partly Cloudy 76 24.4 58 14.4 54 54 ESE 6 9 29.91 1013 10 16 N/A
8:51 am 08:51 Sunny 78 25.6 58 14.4 50 50 VRB 7 11 29.91 1013 10 16 N/A
9:51 am 09:51 Mostly Sunny 80 26.7 57 13.9 45 45 SE 9 15 29.89 1012 10 16 N/A
10:51 am 10:51 Mostly Cloudy 83 28.3 56 13.3 40 40 SSE 14 22 29.88 1012 10 16 N/A
11:51 am 11:51 Partly Cloudy 85 29.4 56 13.3 37 37 S 10 17 29.86 1011 10 16 N/A
12:51 pm 12:51 Sunny 88 31.1 55 12.8 33 33 undefined N/A 29.83 1010 10 16 N/A
1:51 pm 13:51 Partly Cloudy 90 32.2 54 12.2 29 29 E 6 9 29.79 1009 10 16 N/A
2:51 pm 14:51 Partly Cloudy 91 32.8 54 12.2 28 28 VRB 6 9 29.77 1008 10 16 N/A
3:51 pm 15:51 Partly Cloudy 93 33.9 53 11.7 26 26 undefined N/A 29.74 1007 10 16 N/A
4:51 pm 16:51 Mostly Cloudy 92 33.3 54 12.2 28 28 SE 16 26 29.74 1007 10 16 N/A
5:51 pm 17:51 Mostly Cloudy 91 32.8 53 11.7 27 27 ESE 10 17 29.74 1007 10 16 N/A
6:51 pm 18:51 Partly Cloudy 89 31.7 53 11.7 29 29 ESE 12 19 29.76 1008 10 16 N/A
7:51 pm 19:51 Mostly Clear 86 30 56 13.3 36 36 SE 21 33 29.78 1009 10 16 N/A
8:51 pm 20:51 Clear 83 28.3 57 13.9 41 41 SE 14 22 29.83 1010 10 16 N/A
9:51 pm 21:51 Partly Cloudy 82 27.8 59 15 46 46 ESE 14 22 29.87 1012 10 16 N/A
10:51 pm 22:51 Mostly Clear 80 26.7 59 15 49 49 SE 17 28 29.89 1012 10 16 N/A
11:51 pm 23:51 Clear 78 25.6 58 14.4 50 50 SE 15 24 29.88 1012 10 16 N/A

Powered by AerisWeather